This is the latest recevied weather packets stored in our database for station/object DW9280. If no packets are shown the sender has not sent any weather packets the latest 1 day(s).
| Time | Temp. | Humidity | Pressure | Rain* | Wind** | Luminosity | Snow |
|---|---|---|---|---|---|---|---|
| 1778086468 | 13.33° C | 60% | 1010.2 hPa | 0 mm | - | 97 W/m² | - |
| 1778086164 | 13.33° C | 61% | 1010.2 hPa | 0 mm | - | 102 W/m² | - |
| 1778082971 | 13.89° C | 58% | 1010.1 hPa | 0 mm | - | 116 W/m² | - |
| 1778081771 | 14.44° C | 56% | 1010.1 hPa | 0 mm | - | 148 W/m² | - |
| 1778081049 | 14.44° C | 55% | 1010.1 hPa | 0 mm | - | 146 W/m² | - |
| 1778080750 | 14.44° C | 53% | 1010 hPa | 0 mm | - | 167 W/m² | - |
| 1778079855 | 14.44° C | 53% | 1010 hPa | 0 mm | - | 251 W/m² | - |
| 1778079550 | 14.44° C | 54% | 1010 hPa | 0 mm | - | 265 W/m² | - |
| 1778078351 | 14.44° C | 55% | 1010 hPa | 0 mm | - | 158 W/m² | - |
| 1778076676 | 14.44° C | 52% | 1009.9 hPa | 0 mm | - | 251 W/m² | - |
| 1778075949 | 14.44° C | 51% | 1009.9 hPa | 0 mm | - | 308 W/m² | - |
| 1778074751 | 14.44° C | 53% | 1009.9 hPa | 0 mm | - | 334 W/m² | - |
| 1778074448 | 14.44° C | 51% | 1009.8 hPa | 0 mm | - | 355 W/m² | - |
| 1778073588 | 14.44° C | 50% | 1009.8 hPa | 0 mm | - | 279 W/m² | - |
| 1778072646 | 14.44° C | 52% | 1009.7 hPa | 0 mm | - | 329 W/m² | - |
| 1778071572 | 14.44° C | 52% | 1009.8 hPa | 0 mm | - | 318 W/m² | - |
| 1778069349 | 14.44° C | 54% | 1009.6 hPa | 0 mm | - | 420 W/m² | - |
| 1778068750 | 14.44° C | 54% | 1009.6 hPa | 0 mm | - | 411 W/m² | - |
| 1778067847 | 14.44° C | 55% | 1009.6 hPa | 0 mm | - | 397 W/m² | - |
| 1778066951 | 14.44° C | 54% | 1009.6 hPa | 0 mm | - | 513 W/m² | - |
| 1778064849 | 13.89° C | 59% | 1009.4 hPa | 0 mm | - | 459 W/m² | - |
| 1778064550 | 13.89° C | 60% | 1009.4 hPa | 0 mm | - | 397 W/m² | - |
| 1778064073 | 13.33° C | 64% | 1009.4 hPa | 0 mm | - | 290 W/m² | - |
| 1778063650 | 13.33° C | 64% | 1009.4 hPa | 0 mm | - | 244 W/m² | - |
| 1778063172 | 13.33° C | 62% | 1009.3 hPa | 0 mm | - | 221 W/m² | - |
* Rain latest hour (hover to see other rain measurements)
** Current wind speed in m/s (hover to see current wind gust speed)